Wind_Speed
64 64 64 62 61 56 56 56 57 58 60 61 62 61 61 60 61 64 65 65 65 65 67 65 66 66 66 67 67 68 68 69 67 61 58 57 58 55 55 56 54 52 50 47
68 67 65 63 59 60 61 63 64 65 67 68 67 65 67 69 70 70 69 68 68 67 67 68 68 67 67 70 70 69 71 73 73 66 66 64 66 59 57 56 55 55 55 47
71 69 65 64 65 65 67 70 71 73 74 74 75 75 76 76 75 76 74 71 67 61 58 56 61 59 63 66 70 72 77 77 77 75 68 62 66 66 63 62 61 54 57 47
71 67 66 67 69 71 71 74 78 79 80 80 79 81 81 78 74 67 51 49 41 42 43 44 52 56 58 65 70 73 74 78 78 81 78 77 76 72 68 64 65 65 51 55
67 66 69 70 71 74 77 81 83 85 85 86 84 78 62 57 42 42 34 34 28 27 24 26 33 34 37 48 60 62 62 72 70 75 76 71 79 78 76 73 68 65 60 59
64 66 69 74 78 81 83 85 87 88 88 83 75 55 46 37 34 33 29 28 27 21 21 26 27 27 28 25 26 27 38 47 53 78 75 72 74 78 76 77 74 69 67 56
65 69 73 78 80 83 85 87 88 84 71 57 46 39 36 39 34 32 24 23 27 23 25 25 25 27 24 24 19 17 18 23 29 48 54 77 85 77 78 77 78 72 68 63
69 74 76 78 81 85 85 81 63 53 49 43 39 38 39 30 21 21 23 16 24 25 21 25 25 20 18 12 8 10 11 15 25 31 32 42 67 79 71 74 73 70 69 65
74 76 79 83 86 83 73 49 42 41 45 38 41 38 20 22 18 13 16 16 18 20 19 21 21 22 13 9 2 5 13 22 25 32 40 38 33 48 70 63 76 70 65 65
77 79 84 85 79 63 44 32 37 41 43 26 24 21 18 15 15 18 15 13 11 13 14 16 17 17 9 8 16 15 10 12 18 22 34 23 14 12 34 63 62 46 44 47
80 84 84 75 55 43 40 33 35 31 25 14 16 17 13 13 15 13 12 10 7 12 11 10 13 7 8 13 12 13 11 13 8 14 19 11 15 10 30 33 44 40 27 32
84 83 72 54 43 40 34 26 22 20 13 10 11 14 10 15 18 13 10 11 12 12 12 9 4 6 12 13 9 7 11 16 13 17 18 22 14 11 15 38 27 24 24 31
84 73 53 43 41 33 25 20 14 9 7 8 10 10 17 18 16 16 14 10 7 3 5 6 7 10 13 13 11 8 10 10 15 15 13 19 16 8 42 43 35 26 27 30
76 53 42 40 34 24 21 16 13 9 5 10 12 13 16 19 22 19 4 2 3 5 5 6 7 10 12 18 18 13 3 6 7 8 11 6 4 28 42 22 19 18 22 24
57 41 38 35 28 22 21 18 13 10 6 7 12 15 18 20 20 10 8 5 4 0 5 10 8 7 14 16 17 15 8 4 1 2 6 11 17 17 33 14 12 15 17 15
40 35 33 31 26 21 19 15 11 8 7 9 12 15 17 21 18 15 6 7 9 7 11 10 9 6 10 13 13 15 16 11 9 13 17 20 19 26 31 29 27 18 18 17
32 32 31 30 30 24 18 14 13 11 8 7 10 9 17 15 15 15 11 10 8 8 11 13 16 13 7 5 13 18 19 17 15 17 17 10 16 21 15 19 18 20 16 16
27 29 30 35 34 31 23 17 13 11 7 6 7 9 13 13 13 11 7 6 7 9 13 15 8 6 4 4 19 17 13 13 11 10 5 7 14 17 18 18 18 19 24 24
23 25 25 28 30 30 27 25 19 13 9 2 5 6 7 9 14 16 16 15 13 12 9 5 7 9 3 18 15 11 12 10 12 13 14 17 15 16 17 17 18 21 21 20
18 19 18 21 25 25 24 19 16 13 10 3 0 5 8 8 10 14 13 8 4 3 1 2 7 13 12 15 13 13 15 14 14 12 10 11 10 13 16 17 19 18 18 18
13 15 17 17 21 22 25 25 19 14 8 2 3 2 1 4 5 7 9 7 5 5 2 6 2 7 9 9 8 7 6 7 9 12 14 15 15 15 15 16 15 14 14 16
12 12 14 17 19 23 26 28 26 22 18 14 6 5 7 5 3 4 5 5 3 1 4 6 5 5 11 11 9 6 5 6 9 12 13 13 14 14 15 15 16 16 16 16
13 14 16 19 21 23 26 27 25 27 21 16 12 6 8 10 10 5 6 7 7 6 6 5 7 10 10 11 10 8 8 9 10 10 11 12 13 13 13 13 14 14 15 16
16 15 19 21 22 22 22 23 23 26 23 19 15 10 7 11 13 10 7 9 10 11 11 11 10 12 11 12 13 13 14 14 14 14 14 15 15 15 15 16 16 17 18 19
20 16 18 19 19 19 19 20 22 24 22 18 15 13 8 7 12 12 10 8 10 11 14 15 14 12 14 15 15 16 17 18 19 20 21 22 23 23 24 24 25 25 26 26
23 18 16 17 17 18 19 19 19 20 18 17 16 15 12 6 7 11 11 10 11 13 13 15 16 17 17 18 20 21 22 23 24 25 26 26 27 28 29 30 31 32 32 33
28 20 17 16 16 15 15 16 16 17 17 16 15 14 12 9 4 4 9 10 12 13 16 18 20 22 23 24 25 26 27 28 30 31 32 33 34 35 36 37 38 39 40 40
Wind_Direction
323 320 317 314 311 307 303 302 302 302 303 305 303 301 298 295 292 291 288 286 283 280 278 275 273 271 268 269 266 265 265 265 263 260 256 253 251 249 250 252 254 251 254 255
322 319 317 314 311 309 308 307 307 309 309 307 305 302 298 295 292 290 288 287 285 283 279 276 272 269 266 263 261 260 259 258 260 257 256 254 252 249 249 251 250 246 249 249
319 318 315 313 311 311 310 309 310 310 308 306 303 301 298 297 296 296 296 294 292 286 280 272 273 266 258 254 254 252 253 252 253 253 250 250 252 245 245 246 248 243 247 244
318 315 313 311 311 313 314 313 312 309 307 304 303 304 303 303 304 302 300 295 286 279 272 264 259 256 250 247 245 247 249 249 247 245 244 243 245 247 244 243 242 244 237 242
315 315 315 316 315 316 316 313 311 308 307 306 306 307 311 309 308 306 304 301 295 290 289 280 283 277 270 256 249 256 259 255 248 245 242 244 241 239 241 242 242 241 238 239
318 318 318 319 319 317 314 312 310 308 306 306 308 313 308 311 309 302 299 293 292 295 286 292 303 300 288 280 273 259 265 268 263 254 242 237 231 233 236 238 239 240 241 238
319 321 322 321 318 316 313 310 307 307 309 312 318 316 315 316 308 299 299 288 286 292 289 294 298 295 288 283 291 277 283 290 285 275 261 249 240 234 236 239 235 237 239 241
324 323 322 320 317 314 310 309 310 311 312 320 319 311 310 307 305 301 294 281 283 290 291 296 300 293 296 274 251 286 257 283 296 280 280 271 249 240 237 235 234 237 236 237
326 325 322 320 315 312 310 312 310 311 312 326 311 308 308 314 318 311 296 299 278 289 294 295 292 305 315 169 210 206 277 290 271 267 274 283 274 253 240 238 237 235 236 235
328 326 323 319 315 315 317 316 308 305 311 326 310 313 316 312 306 308 303 291 293 297 296 295 299 299 283 312 325 318 283 260 279 290 284 309 314 234 223 226 234 233 243 248
329 326 323 320 322 323 325 317 310 315 330 333 321 315 313 308 307 321 314 316 312 316 317 309 291 287 294 317 319 294 303 301 291 277 271 311 294 309 226 216 225 233 236 233
329 327 326 328 329 331 327 324 328 337 346 2 338 329 344 333 325 321 324 327 337 336 326 318 299 297 310 309 269 307 309 325 308 283 301 285 300 269 252 190 198 196 207 221
331 332 333 333 337 339 343 343 351 24 17 328 322 313 326 329 339 337 337 334 327 327 319 309 297 313 316 309 325 343 346 322 319 318 277 315 337 231 162 163 144 158 166 178
336 338 339 342 344 350 353 4 8 12 336 302 328 334 345 351 346 348 9 165 141 176 220 265 331 340 323 340 349 14 290 351 344 325 308 43 105 164 161 153 146 155 188 178
341 343 348 349 351 353 352 355 9 14 351 327 344 357 354 3 22 41 73 95 104 333 331 3 6 344 326 352 19 1 25 224 338 192 82 98 98 148 176 165 158 183 192 208
345 350 357 0 356 355 357 8 12 11 5 352 3 357 352 8 31 52 68 92 71 40 29 31 35 24 22 8 355 31 36 51 68 88 82 118 117 148 170 180 189 184 196 206
349 352 355 11 12 6 7 13 13 16 8 4 3 339 3 22 36 33 50 79 59 24 20 34 47 31 26 352 11 50 45 50 74 79 63 56 135 167 139 155 194 202 191 177
351 352 4 10 11 15 17 12 12 16 22 24 22 351 357 18 33 48 57 74 65 42 46 41 22 116 275 7 65 59 59 56 50 82 118 132 126 134 149 152 175 167 175 178
348 359 15 13 13 17 16 13 11 10 15 22 40 11 357 23 20 13 25 45 36 50 64 69 129 94 48 88 81 83 93 116 121 130 139 134 136 141 146 158 163 178 182 182
342 356 2 9 10 13 19 18 9 360 355 339 234 45 11 8 8 12 4 27 21 148 294 288 251 301 125 99 96 91 95 100 106 111 135 158 189 176 168 170 174 178 187 193
330 337 347 356 357 0 10 14 17 16 20 324 243 194 356 4 359 356 349 349 36 34 104 233 276 176 136 121 93 90 98 119 132 147 145 144 147 152 161 168 173 180 190 200
305 311 324 333 340 349 359 4 11 18 18 12 341 248 229 249 298 301 320 320 298 302 319 309 274 232 192 166 159 164 171 187 184 183 179 182 181 180 183 186 190 198 205 214
306 296 306 317 326 335 346 356 6 7 7 10 360 322 237 236 246 258 269 276 276 267 252 262 257 300 242 211 209 214 215 216 220 220 216 214 217 218 221 222 223 225 227 233
332 308 308 314 324 336 346 352 358 0 3 2 360 348 292 236 237 244 254 252 252 257 253 252 279 280 264 248 244 247 252 257 259 259 260 261 264 264 262 262 259 259 261 261
345 326 314 318 324 332 341 349 352 353 356 357 3 4 340 272 241 242 246 250 252 255 260 264 270 268 266 265 262 260 261 266 269 271 272 273 274 273 271 270 270 271 270 270
345 334 321 322 325 332 337 341 340 345 351 358 3 7 359 344 257 242 250 257 259 262 265 265 266 268 270 270 270 271 272 272 271 270 270 270 270 271 271 271 271 272 272 271
356 343 333 329 332 330 326 328 336 343 347 355 359 1 359 354 329 274 250 258 264 262 260 261 263 265 266 269 269 269 270 271 271 271 271 271 271 271 271 271 271 270 270 270
Height
5686 5678 5671 5663 5657 5651 5642 5635 5628 5621 5614 5608 5602 5595 5588 5582 5575 5571 5566 5562 5557 5556 5553 5557 5556 5557 5553 5554 5554 5552 5550 5549 5557 5568 5572 5574 5574 5578 5580 5582 5588 5589 5592 5600
5675 5666 5657 5649 5641 5633 5626 5619 5610 5602 5594 5585 5579 5572 5564 5557 5550 5545 5541 5535 5531 5527 5526 5525 5529 5531 5532 5525 5527 5529 5529 5525 5528 5544 5549 5553 5551 5561 5564 5567 5568 5573 5576 5591
5659 5650 5641 5633 5624 5615 5609 5600 5591 5584 5573 5563 5556 5549 5538 5527 5519 5515 5507 5504 5499 5494 5492 5491 5492 5497 5496 5499 5500 5502 5496 5502 5504 5512 5529 5526 5527 5537 5543 5546 5545 5562 5560 5576
5646 5636 5626 5617 5608 5600 5589 5580 5571 5560 5548 5539 5528 5516 5505 5498 5487 5483 5476 5476 5471 5467 5464 5465 5463 5463 5469 5472 5474 5472 5469 5470 5475 5482 5491 5500 5503 5512 5520 5523 5532 5534 5556 5553
5632 5622 5611 5600 5590 5581 5571 5557 5547 5535 5523 5510 5500 5489 5479 5474 5467 5460 5461 5454 5453 5451 5449 5447 5444 5447 5450 5449 5453 5448 5449 5444 5451 5453 5468 5470 5474 5485 5496 5505 5513 5519 5530 5534
5620 5608 5597 5584 5571 5558 5544 5530 5519 5507 5494 5485 5477 5471 5462 5460 5454 5453 5449 5445 5442 5442 5441 5439 5438 5436 5434 5434 5435 5437 5433 5429 5432 5427 5447 5449 5442 5467 5476 5483 5492 5503 5508 5530
5607 5595 5581 5567 5550 5534 5522 5506 5492 5481 5475 5465 5460 5454 5450 5446 5443 5437 5439 5437 5434 5435 5432 5430 5429 5427 5425 5424 5425 5425 5424 5423 5420 5414 5421 5409 5424 5448 5454 5458 5472 5484 5495 5506
5593 5580 5565 5550 5533 5516 5498 5482 5471 5462 5458 5455 5450 5444 5439 5436 5434 5431 5428 5431 5426 5426 5425 5423 5420 5421 5420 5418 5419 5420 5420 5417 5411 5406 5403 5401 5407 5424 5434 5441 5453 5466 5476 5488
5578 5563 5546 5531 5513 5496 5479 5468 5459 5452 5446 5450 5437 5432 5430 5427 5426 5426 5423 5422 5421 5420 5419 5417 5414 5413 5413 5414 5414 5415 5414 5410 5404 5400 5393 5389 5399 5407 5421 5436 5425 5452 5462 5474
5562 5545 5530 5511 5491 5476 5466 5459 5451 5443 5438 5437 5429 5426 5424 5422 5420 5418 5418 5417 5417 5415 5415 5413 5412 5411 5409 5409 5409 5408 5405 5401 5397 5393 5388 5385 5388 5391 5400 5407 5425 5449 5459 5466
5546 5529 5510 5490 5475 5464 5456 5449 5440 5434 5432 5429 5425 5422 5420 5419 5417 5415 5415 5414 5413 5412 5411 5410 5408 5408 5408 5407 5405 5399 5397 5393 5391 5388 5385 5383 5385 5388 5388 5406 5427 5440 5448 5455
5530 5511 5490 5474 5464 5455 5447 5440 5435 5430 5427 5426 5422 5419 5418 5416 5414 5412 5412 5411 5409 5409 5408 5407 5407 5406 5404 5401 5399 5398 5395 5390 5387 5384 5383 5380 5378 5379 5380 5394 5415 5427 5439 5446
5513 5492 5476 5465 5456 5448 5441 5436 5432 5430 5427 5424 5422 5420 5418 5415 5412 5410 5408 5407 5406 5406 5406 5405 5405 5404 5402 5398 5396 5393 5392 5388 5385 5382 5378 5375 5374 5376 5380 5394 5411 5426 5435 5442
5495 5480 5469 5459 5451 5445 5440 5436 5432 5430 5427 5423 5421 5419 5416 5412 5409 5406 5404 5403 5403 5403 5403 5403 5403 5403 5399 5396 5393 5390 5387 5386 5384 5383 5380 5379 5377 5382 5388 5400 5409 5421 5430 5439
5484 5474 5465 5456 5449 5443 5439 5434 5431 5428 5426 5423 5421 5418 5415 5411 5408 5408 5406 5404 5403 5403 5402 5403 5404 5402 5397 5395 5392 5391 5389 5387 5386 5384 5384 5385 5387 5390 5400 5408 5414 5422 5429 5435
5479 5471 5463 5456 5448 5443 5438 5434 5431 5429 5426 5424 5422 5419 5414 5412 5409 5408 5407 5406 5405 5405 5404 5404 5403 5400 5399 5397 5395 5391 5388 5388 5388 5387 5388 5391 5398 5401 5406 5411 5418 5426 5431 5436
5476 5470 5463 5456 5449 5443 5438 5435 5432 5429 5426 5424 5423 5419 5416 5414 5411 5410 5409 5407 5407 5407 5405 5403 5401 5401 5401 5400 5397 5393 5393 5391 5391 5392 5394 5398 5401 5406 5410 5416 5421 5425 5429 5433
5474 5468 5461 5455 5450 5444 5439 5435 5432 5429 5427 5426 5424 5420 5418 5416 5414 5413 5411 5410 5410 5408 5407 5406 5406 5406 5405 5403 5399 5399 5399 5399 5399 5399 5401 5404 5404 5407 5411 5414 5418 5421 5426 5430
5472 5467 5462 5458 5452 5446 5441 5436 5432 5429 5429 5426 5425 5422 5420 5418 5417 5416 5413 5411 5411 5410 5410 5412 5412 5411 5407 5405 5406 5406 5405 5405 5404 5406 5407 5407 5409 5410 5412 5415 5418 5422 5425 5428
5469 5466 5463 5459 5455 5450 5446 5441 5435 5430 5428 5426 5425 5424 5421 5420 5420 5419 5418 5416 5415 5414 5416 5415 5414 5412 5410 5410 5411 5410 5409 5408 5409 5409 5411 5412 5413 5413 5415 5417 5419 5421 5424 5427
5466 5464 5462 5459 5456 5452 5446 5441 5437 5431 5428 5426 5424 5424 5423 5422 5421 5420 5420 5419 5417 5416 5417 5416 5415 5414 5413 5412 5412 5412 5412 5412 5413 5414 5414 5415 5415 5416 5416 5417 5418 5420 5422 5424
5463 5462 5459 5457 5455 5450 5447 5441 5436 5432 5428 5425 5423 5422 5422 5421 5421 5420 5420 5419 5419 5417 5417 5417 5416 5415 5414 5413 5413 5414 5414 5414 5414 5415 5415 5415 5415 5415 5416 5417 5417 5418 5420 5422
5458 5458 5456 5454 5452 5449 5444 5440 5436 5433 5429 5425 5422 5420 5419 5419 5419 5420 5419 5418 5418 5418 5417 5416 5416 5415 5415 5414 5414 5413 5413 5414 5414 5414 5414 5414 5414 5414 5415 5415 5415 5416 5417 5418
5455 5454 5451 5451 5447 5445 5442 5439 5435 5432 5427 5424 5421 5418 5416 5416 5416 5417 5417 5417 5417 5416 5416 5416 5416 5414 5414 5413 5413 5412 5412 5412 5412 5412 5411 5411 5411 5411 5411 5412 5412 5412 5412 5412
5453 5450 5448 5446 5444 5442 5440 5437 5434 5430 5427 5423 5420 5417 5415 5413 5413 5414 5415 5415 5414 5414 5414 5413 5413 5413 5412 5410 5410 5410 5409 5408 5408 5407 5407 5406 5406 5405 5405 5405 5405 5405 5405 5404
5451 5447 5445 5443 5441 5438 5436 5435 5433 5430 5427 5423 5420 5416 5414 5412 5411 5411 5411 5412 5412 5412 5411 5410 5409 5408 5407 5407 5406 5405 5405 5404 5403 5402 5402 5401 5400 5399 5398 5397 5396 5396 5395 5395
5449 5444 5441 5440 5438 5437 5435 5433 5431 5428 5425 5422 5419 5416 5414 5412 5410 5409 5409 5409 5408 5408 5407 5406 5405 5404 5402 5401 5400 5399 5398 5397 5395 5394 5393 5391 5390 5389 5388 5387 5386 5385 5384 5383